Location: Newark
(49.8969°N, 3.3422°E)
Time: 00:32:37
(UTC+00:00)

A-11 Canister half - Pass Details

Date: 29 January 2020
Orbit: 1517 x 1683 km, 47.2° (Epoch: 24 February)

Event Time Altitude Azimuth Distance (km) Brightness Sun altitude
Rises 01:17:49 0° 266° (W) 4,716 - -54.6°
Reaches altitude 10° 01:20:53 10° 265° (W) 3,716 - -54.3°
Maximum altitude 01:30:12 77° 182° (S) 1,557 - -53.4°
Exits shadow 01:38:29 14° 99° (E) 3,376 10.9 -52.6°
Drops below altitude 10° 01:39:26 10° 98° (E) 3,682 11.2 -52.5°
Sets 01:42:28 0° 97° (E) 4,670 11.8 -52.1°
